FW6558 Weather Reports


Display with metric or nautical units.
time (UTC)temp
F
wind
direction
speed
MPH
gust
MPH
rain 1hr
in
rain 24hr
in
rain mn
in
humidity
%
barometer
mb
20210422223100 56 37 1.0 2.0 0.00 0.00 0.00 49 1018.2
20210422222600 56 15 2.0 3.0 0.00 0.00 0.00 48 1017.9
20210422222101 56 4 2.0 3.0 0.00 0.00 0.00 48 1018.2
20210422221600 56 328 1.0 3.0 0.00 0.00 0.00 50 1018.2
20210422221103 56 313 1.0 3.0 0.00 0.00 0.00 49 1018.3
20210422220601 57 350 1.0 1.0 0.00 0.00 0.00 48 1018.0
20210422220100 57 26 1.0 1.0 0.00 0.00 0.00 47 1018.1
20210422215600 57 25 2.0 2.0 0.00 0.00 0.00 48 1018.2
20210422215101 57 10 2.0 3.0 0.00 0.00 0.00 47 1018.2
20210422214600 57 6 1.0 3.0 0.00 0.00 0.00 48 1018.1
20210422214100 56 16 1.0 3.0 0.00 0.00 0.00 48 1018.0
20210422213600 56 348 1.0 5.0 0.00 0.00 0.00 49 1018.5
20210422213101 57 351 1.0 3.0 0.00 0.00 0.00 48 1018.5
20210422212600 57 186 1.0 5.0 0.00 0.00 0.00 49 1018.3
20210422212100 57 346 3.0 6.0 0.00 0.00 0.00 47 1018.3
20210422211601 57 338 1.0 1.0 0.00 0.00 0.00 48 1018.4
20210422211100 58 313 0.0 1.0 0.00 0.00 0.00 46 1018.2
20210422210600 57 337 1.0 3.0 0.00 0.00 0.00 49 1018.4
20210422210101 58 34 1.0 3.0 0.00 0.00 0.00 48 1018.6
20210422205600 58 320 2.0 5.0 0.00 0.00 0.00 47 1018.4
20210422205100 58 257 2.0 3.0 0.00 0.00 0.00 46 1018.7
20210422204600 57 359 1.0 5.0 0.00 0.00 0.00 48 1018.6
20210422204101 57 215 2.0 5.0 0.00 0.00 0.00 47 1018.6
20210422203600 57 36 1.0 6.0 0.00 0.00 0.00 46 1018.9
20210422203100 57 287 1.0 3.0 0.00 0.00 0.00 48 1018.8
20210422202600 57 64 1.0 3.0 0.00 0.00 0.00 49 1019.1
20210422202100 57 337 2.0 5.0 0.00 0.00 0.00 46 1019.2
20210422201600 57 355 1.0 2.0 0.00 0.00 0.00 46 1019.0
20210422201101 57 157 2.0 2.0 0.00 0.00 0.00 47 1018.9
20210422200600 57 338 1.0 5.0 0.00 0.00 0.00 47 1019.3
20210422200100 58 321 2.0 3.0 0.00 0.00 0.00 45 1019.0
20210422195600 58 201 1.0 6.0 0.00 0.00 0.00 47 1019.3
20210422195100 58 304 1.0 3.0 0.00 0.00 0.00 45 1019.4
20210422194600 58 244 1.0 3.0 0.00 0.00 0.00 48 1019.1
20210422194100 57 307 1.0 2.0 0.00 0.00 0.00 48 1019.3
20210422193600 56 357 1.0 3.0 0.00 0.00 0.00 50 1019.4
20210422193100 57 213 2.0 2.0 0.00 0.00 0.00 48 1019.6
20210422192600 56 220 2.0 6.0 0.00 0.00 0.00 50 1019.7
20210422192100 56 0 3.0 6.0 0.00 0.00 0.00 51 1019.7
20210422191600 57 340 3.0 6.0 0.00 0.00 0.00 50 1019.9
20210422191100 57 20 3.0 6.0 0.00 0.00 0.00 49 1019.9
20210422190601 56 188 2.0 3.0 0.00 0.00 0.00 50 1020.1
20210422190100 57 310 3.0 3.0 0.00 0.00 0.00 48 1019.8
20210422185601 57 333 2.0 3.0 0.00 0.00 0.00 49 1020.0
20210422185100 57 208 1.0 5.0 0.00 0.00 0.00 50 1020.0
20210422184600 55 17 2.0 3.0 0.00 0.00 0.00 52 1020.1
20210422184100 55 321 2.0 7.0 0.00 0.00 0.00 50 1020.1
20210422183601 56 0 3.0 7.0 0.00 0.00 0.00 49 1020.1
20210422183100 56 338 3.0 7.0 0.00 0.00 0.00 49 1020.1
20210422182600 54 279 2.0 9.0 0.00 0.00 0.00 50 1020.2
20210422182100 55 337 4.0 9.0 0.00 0.00 0.00 49 1020.2
20210422181600 55 350 1.0 5.0 0.00 0.00 0.00 49 1020.3
20210422181101 55 189 2.0 3.0 0.00 0.00 0.00 48 1020.2
20210422180600 56 320 1.0 3.0 0.00 0.00 0.00 49 1020.3
20210422180100 55 312 2.0 5.0 0.00 0.00 0.00 50 1020.3
20210422175600 54 270 1.0 7.0 0.00 0.00 0.00 51 1020.4
20210422175100 55 19 3.0 7.0 0.00 0.00 0.00 49 1020.5
20210422174600 55 330 2.0 5.0 0.00 0.00 0.00 48 1020.6
20210422174100 55 10 3.0 6.0 0.00 0.00 0.00 50 1020.5
20210422173600 54 306 3.0 5.0 0.00 0.00 0.00 52 1020.6
20210422173101 56 321 1.0 2.0 0.00 0.00 0.00 51 1020.5
20210422172600 54 282 1.0 9.0 0.00 0.00 0.00 50 1020.8
20210422172100 56 39 1.0 5.0 0.00 0.00 0.00 48 1020.8
20210422171600 55 331 1.0 3.0 0.00 0.00 0.00 49 1020.9
20210422171101 55 336 3.0 10.0 0.00 0.00 0.00 49 1020.9
20210422170600 55 296 1.0 3.0 0.00 0.00 0.00 48 1020.9
20210422170059 55 267 0.0 5.0 0.00 0.00 0.00 50 1020.9
20210422165600 53 327 3.0 5.0 0.00 0.00 0.00 50 1021.0
20210422165100 54 331 2.0 5.0 0.00 0.00 0.00 49 1021.1
20210422164600 53 153 2.0 5.0 0.00 0.00 0.00 51 1021.1
20210422164100 54 193 2.0 6.0 0.00 0.00 0.00 48 1021.1
20210422163600 53 288 2.0 5.0 0.00 0.00 0.00 50 1021.2
20210422163100 53 269 2.0 9.0 0.00 0.00 0.00 51 1021.2
20210422162600 52 334 1.0 5.0 0.00 0.00 0.00 51 1021.1
20210422162100 51 246 2.0 8.0 0.00 0.00 0.00 54 1021.5
20210422161600 52 25 3.0 6.0 0.00 0.00 0.00 50 1021.4
20210422161100 52 14 3.0 7.0 0.00 0.00 0.00 51 1021.4
20210422160600 52 347 2.0 3.0 0.00 0.00 0.00 51 1021.4
20210422160100 53 34 2.0 5.0 0.00 0.00 0.00 49 1021.8
20210422155600 51 341 3.0 7.0 0.00 0.00 0.00 52 1021.8
20210422155100 51 270 2.0 2.0 0.00 0.00 0.00 52 1021.7
20210422154600 50 268 1.0 3.0 0.00 0.00 0.00 53 1021.5
20210422154100 51 6 3.0 5.0 0.00 0.00 0.00 52 1021.6
20210422153600 51 142 1.0 2.0 0.00 0.00 0.00 54 1021.8
20210422153100 50 152 1.0 3.0 0.00 0.00 0.00 56 1021.6
20210422152600 50 185 3.0 3.0 0.00 0.00 0.00 52 1021.8
20210422152100 50 7 2.0 2.0 0.00 0.00 0.00 55 1021.7
20210422151600 49 124 1.0 3.0 0.00 0.00 0.00 55 1021.7
20210422151100 50 25 0.0 3.0 0.00 0.00 0.00 55 1021.5
20210422150600 49 40 3.0 6.0 0.00 0.00 0.00 57 1021.7
20210422150100 48 2 3.0 6.0 0.00 0.00 0.00 57 1021.7
20210422145600 49 1 1.0 6.0 0.00 0.00 0.00 58 1021.8
20210422145100 49 153 2.0 3.0 0.00 0.00 0.00 58 1021.9
20210422144600 49 292 1.0 2.0 0.00 0.00 0.00 56 1021.7
20210422144100 48 347 1.0 2.0 0.00 0.00 0.00 57 1021.7
20210422143600 49 2 1.0 3.0 0.00 0.00 0.00 56 1021.5
20210422143100 49 268 1.0 1.0 0.00 0.00 0.00 54 1021.4
20210422142600 48 267 1.0 2.0 0.00 0.00 0.00 56 1021.6
20210422142100 48 2 1.0 2.0 0.00 0.00 0.00 55 1021.5
20210422141600 48 8 1.0 2.0 0.00 0.00 0.00 55 1021.6
20210422141100 48 355 1.0 2.0 0.00 0.00 0.00 55 1021.7
20210422140600 47 5 2.0 2.0 0.00 0.00 0.00 55 1021.3
20210422140100 46 12 1.0 3.0 0.00 0.00 0.00 56 1021.4
20210422135600 45 7 2.0 3.0 0.00 0.00 0.00 60 1021.3
20210422135100 47 1 1.0 2.0 0.00 0.00 0.00 55 1021.4
20210422134600 45 2 0.0 2.0 0.00 0.00 0.00 59 1021.3
20210422134100 44 30 1.0 2.0 0.00 0.00 0.00 58 1021.4
20210422133600 43 26 1.0 3.0 0.00 0.00 0.00 61 1021.4
20210422133100 43 2 1.0 2.0 0.00 0.00 0.00 59 1021.4
20210422132600 43 43 0.0 2.0 0.00 0.00 0.00 61 1021.2
20210422132100 42 45 1.0 1.0 0.00 0.00 0.00 66 1021.3
20210422131600 42 36 2.0 2.0 0.00 0.00 0.00 61 1021.0
20210422131100 41 136 0.0 1.0 0.00 0.00 0.00 66 1021.2
20210422130600 40 136 1.0 1.0 0.00 0.00 0.00 77 1021.1
20210422130101 39 136 0.0 0.0 0.00 0.00 0.00 80 1021.0
20210422125600 38 136 0.0 0.0 0.00 0.00 0.00 76 1020.7
20210422125100 37 136 0.0 0.0 0.00 0.00 0.00 83 1020.9
20210422124559 37 136 0.0 0.0 0.00 0.00 0.00 87 1020.8
20210422124100 36 136 0.0 0.0 0.00 0.00 0.00 88 1020.7
20210422123600 35 136 0.0 0.0 0.00 0.00 0.00 89 1021.0
20210422123100 35 136 0.0 0.0 0.00 0.00 0.00 88 1020.8
20210422122600 34 136 0.0 0.0 0.00 0.00 0.00 84 1020.5
20210422122100 33 136 0.0 0.0 0.00 0.00 0.00 84 1020.5
20210422121600 33 136 0.0 0.0 0.00 0.00 0.00 84 1020.3
20210422121100 32 136 0.0 0.0 0.00 0.00 0.00 85 1020.2
20210422120600 32 136 0.0 0.0 0.00 0.00 0.00 85 1020.2
20210422120100 31 136 0.0 0.0 0.00 0.00 0.00 85 1020.2
20210422115600 31 136 0.0 0.0 0.00 0.00 0.00 88 1020.0
20210422115100 31 136 0.0 0.0 0.00 0.00 0.00 93 1020.3
20210422114600 31 136 0.0 0.0 0.00 0.00 0.00 93 1020.0
20210422114100 30 136 0.0 0.0 0.00 0.00 0.00 94 1020.0
20210422113600 30 136 0.0 0.0 0.00 0.00 0.00 94 1019.8
20210422113059 30 136 0.0 0.0 0.00 0.00 0.00 95 1019.6
20210422112600 30 136 0.0 0.0 0.00 0.00 0.00 94 1019.6
20210422112100 30 136 0.0 0.0 0.00 0.00 0.00 95 1019.4
20210422111600 30 136 0.0 0.0 0.00 0.00 0.00 95 1019.5
20210422111100 30 136 0.0 0.0 0.00 0.00 0.00 94 1019.5
20210422110559 30 136 0.0 0.0 0.00 0.00 0.00 96 1019.2
20210422110100 30 136 0.0 0.0 0.00 0.00 0.00 94 1019.3
20210422105600 30 136 0.0 0.0 0.00 0.00 0.00 94 1019.3
20210422105100 29 136 0.0 0.0 0.00 0.00 0.00 94 1019.3
20210422104559 29 136 0.0 0.0 0.00 0.00 0.00 95 1019.2
20210422104100 29 136 0.0 0.0 0.00 0.00 0.00 96 1019.3
20210422103600 29 136 0.0 0.0 0.00 0.00 0.00 96 1019.1
20210422103100 29 136 0.0 0.0 0.00 0.00 0.00 97 1019.1
20210422102600 29 136 0.0 0.0 0.00 0.00 0.00 96 1019.1
20210422102100 29 136 0.0 0.0 0.00 0.00 0.00 96 1019.2
20210422101559 29 136 0.0 0.0 0.00 0.00 0.00 96 1019.1
20210422101059 29 136 0.0 0.0 0.00 0.00 0.00 95 1018.9
20210422100600 29 136 0.0 0.0 0.00 0.00 0.00 92 1019.2
20210422100100 29 136 0.0 0.0 0.00 0.00 0.00 92 1019.1
20210422095600 29 136 0.0 0.0 0.00 0.00 0.00 94 1019.3
20210422095100 29 136 0.0 0.0 0.00 0.00 0.00 93 1019.0
20210422094600 29 136 0.0 0.0 0.00 0.00 0.00 93 1019.1
20210422094059 29 136 0.0 0.0 0.00 0.00 0.00 96 1019.4
20210422093600 29 136 0.0 0.0 0.00 0.00 0.00 95 1019.5
20210422093100 29 136 0.0 0.0 0.00 0.00 0.00 95 1019.4
20210422092600 30 136 0.0 0.0 0.00 0.00 0.00 94 1019.5
20210422092100 29 136 0.0 0.0 0.00 0.00 0.00 93 1019.4
20210422091600 29 136 0.0 0.0 0.00 0.00 0.00 91 1019.3
20210422091100 29 136 0.0 0.0 0.00 0.00 0.00 95 1019.3
20210422090600 29 136 0.0 0.0 0.00 0.00 0.00 95 1019.2
20210422090059 29 136 0.0 0.0 0.00 0.00 0.00 96 1019.4
20210422085600 29 136 0.0 0.0 0.00 0.00 0.00 96 1019.4
20210422085059 29 136 0.0 0.0 0.00 0.00 0.00 94 1019.3
20210422084600 29 136 0.0 0.0 0.00 0.00 0.00 95 1019.5
20210422084100 29 136 0.0 0.0 0.00 0.00 0.00 94 1019.5
20210422083559 29 136 0.0 0.0 0.00 0.00 0.00 95 1019.5
20210422083100 29 136 0.0 0.0 0.00 0.00 0.00 94 1019.4
20210422082559 29 136 0.0 0.0 0.00 0.00 0.00 94 1019.4
20210422082100 29 136 0.0 0.0 0.00 0.00 0.00 95 1019.5
20210422081600 30 136 0.0 0.0 0.00 0.00 0.00 95 1019.3
20210422081100 30 136 0.0 0.0 0.00 0.00 0.00 94 1019.1
20210422080600 30 136 0.0 0.0 0.00 0.00 0.00 95 1019.1
20210422080059 30 136 0.0 0.0 0.00 0.00 0.00 94 1019.2
20210422075600 30 136 0.0 0.0 0.00 0.00 0.00 94 1019.1
20210422075100 30 136 0.0 0.0 0.00 0.00 0.00 93 1019.3
20210422074600 30 136 0.0 0.0 0.00 0.00 0.00 93 1019.3
20210422074059 30 136 0.0 0.0 0.00 0.00 0.00 94 1019.5
20210422073600 30 136 0.0 0.0 0.00 0.00 0.00 93 1019.4
20210422073100 30 136 0.0 0.0 0.00 0.00 0.00 93 1019.4
20210422072600 30 136 0.0 0.0 0.00 0.00 0.00 91 1019.3
20210422072100 30 136 0.0 0.0 0.00 0.00 0.00 91 1019.4
20210422071559 31 136 0.0 0.0 0.00 0.00 0.00 93 1019.4
20210422071100 31 136 0.0 0.0 0.00 0.00 0.00 92 1019.3
20210422070600 31 136 0.0 0.0 0.00 0.00 0.00 91 1019.6
20210422070059 30 136 0.0 0.0 0.00 0.00 0.00 90 1019.4
20210422065600 31 136 0.0 0.0 0.00 0.00 0.00 90 1019.3
20210422065059 31 136 0.0 0.0 0.00 0.00 0.00 92 1019.2
20210422064600 31 136 0.0 0.0 0.00 0.00 0.00 90 1019.3
20210422064100 31 136 0.0 0.0 0.00 0.00 0.00 91 1019.1
20210422063600 32 136 0.0 0.0 0.00 0.00 0.00 91 1019.0
20210422063100 32 136 0.0 0.0 0.00 0.00 0.00 90 1019.2
20210422062600 32 136 0.0 0.0 0.00 0.00 0.00 89 1019.3
20210422062100 32 136 0.0 0.0 0.00 0.00 0.00 90 1019.1
20210422061600 32 136 0.0 0.0 0.00 0.00 0.00 88 1019.3
20210422061100 32 136 0.0 0.0 0.00 0.00 0.00 87 1019.1
20210422060600 32 136 0.0 0.0 0.00 0.00 0.00 87 1019.1
20210422060100 32 136 0.0 0.0 0.00 0.00 0.00 90 1019.2
20210422055600 32 136 0.0 0.0 0.00 0.00 0.00 89 1019.3
20210422055100 32 136 0.0 0.0 0.00 0.00 0.00 89 1019.3
20210422054600 32 136 0.0 0.0 0.00 0.00 0.00 88 1019.2
20210422054059 32 136 0.0 0.0 0.00 0.00 0.00 89 1019.2
20210422053600 31 136 0.0 0.0 0.00 0.00 0.00 89 1019.1
20210422053100 31 136 0.0 0.0 0.00 0.00 0.00 90 1019.3
20210422052600 31 136 0.0 0.0 0.00 0.00 0.00 90 1019.3
20210422052100 31 136 0.0 0.0 0.00 0.00 0.00 90 1019.3
20210422051600 31 136 0.0 0.0 0.00 0.00 0.00 92 1019.5
20210422051100 31 136 0.0 0.0 0.00 0.00 0.00 90 1019.5
20210422050559 31 136 0.0 0.0 0.00 0.00 0.00 91 1019.3
20210422050100 31 136 0.0 0.0 0.00 0.00 0.00 91 1019.4
20210422045600 31 136 0.0 0.0 0.00 0.00 0.00 91 1019.6
20210422045059 31 136 0.0 0.0 0.00 0.00 0.00 88 1019.7
20210422044600 32 136 0.0 0.0 0.00 0.00 0.00 88 1019.5
20210422044059 32 136 0.0 0.0 0.00 0.00 0.00 86 1019.6
20210422043600 32 136 0.0 0.0 0.00 0.00 0.00 88 1019.8
20210422043059 32 136 0.0 0.0 0.00 0.00 0.00 90 1019.7
20210422042600 32 136 0.0 0.0 0.00 0.00 0.00 87 1019.8
20210422042059 32 136 0.0 0.0 0.00 0.00 0.00 87 1019.6
20210422041559 32 136 0.0 0.0 0.00 0.00 0.00 86 1019.5
20210422041100 33 136 0.0 0.0 0.00 0.00 0.00 85 1019.8
20210422040559 33 136 0.0 0.0 0.00 0.00 0.00 87 1019.7
20210422040100 33 136 0.0 0.0 0.00 0.00 0.00 86 1019.7
20210422035559 33 136 0.0 0.0 0.00 0.00 0.00 86 1019.9
20210422035100 33 136 0.0 0.0 0.00 0.00 0.00 84 1019.3
20210422034559 33 136 0.0 0.0 0.00 0.00 0.00 84 1019.5
20210422034059 33 136 0.0 0.0 0.00 0.00 0.00 85 1019.6
20210422033600 33 136 0.0 0.0 0.00 0.00 0.00 83 1019.8
20210422033059 34 136 0.0 0.0 0.00 0.00 0.00 82 1019.6
20210422032600 34 136 0.0 0.0 0.00 0.00 0.00 81 1019.7
20210422032059 34 136 0.0 0.0 0.00 0.00 0.00 81 1019.7
20210422031559 34 136 0.0 0.0 0.00 0.00 0.00 82 1019.6
20210422031100 35 136 0.0 0.0 0.00 0.00 0.00 81 1019.7
20210422030559 35 136 0.0 0.0 0.00 0.00 0.00 80 1019.5
20210422030059 35 136 0.0 0.0 0.00 0.00 0.00 79 1019.6
20210422025600 35 136 0.0 0.0 0.00 0.00 0.00 78 1019.6
20210422025059 36 136 0.0 0.0 0.00 0.00 0.00 78 1019.5
20210422024559 36 136 0.0 0.0 0.00 0.00 0.00 77 1019.3
20210422024100 36 136 0.0 0.0 0.00 0.00 0.00 75 1019.5
20210422023600 36 136 0.0 0.0 0.00 0.00 0.00 78 1019.3
20210422023059 37 136 0.0 0.0 0.00 0.00 0.00 74 1019.4
20210422022600 37 136 0.0 1.0 0.00 0.00 0.00 74 1019.3
20210422022059 37 136 0.0 1.0 0.00 0.00 0.00 74 1019.3
20210422021559 37 136 0.0 1.0 0.00 0.00 0.00 73 1019.3
20210422021100 37 136 1.0 1.0 0.00 0.00 0.00 75 1019.1
20210422020559 37 136 0.0 1.0 0.00 0.00 0.00 73 1018.9
20210422020059 38 136 0.0 1.0 0.00 0.00 0.00 74 1019.0
20210422015600 38 136 0.0 1.0 0.00 0.00 0.00 75 1019.1
20210422015100 38 136 0.0 1.0 0.00 0.00 0.00 73 1019.0
20210422014559 38 136 0.0 1.0 0.00 0.00 0.00 72 1019.1
20210422014100 38 136 1.0 1.0 0.00 0.00 0.00 72 1018.9
20210422013600 39 136 1.0 3.0 0.00 0.00 0.00 72 1018.9
20210422013100 39 79 0.0 2.0 0.00 0.00 0.00 68 1018.9
20210422012600 39 340 2.0 2.0 0.00 0.00 0.00 66 1018.9
20210422012100 39 93 0.0 2.0 0.00 0.00 0.00 69 1018.9
20210422011600 40 94 0.0 2.0 0.00 0.00 0.00 67 1018.6
20210422011059 40 42 1.0 2.0 0.00 0.00 0.00 66 1018.7
20210422010559 40 37 2.0 3.0 0.00 0.00 0.00 65 1018.6
20210422010059 40 336 2.0 3.0 0.00 0.00 0.00 64 1018.6
20210422005600 40 42 1.0 3.0 0.00 0.00 0.00 65 1018.3
20210422005100 41 10 3.0 5.0 0.00 0.00 0.00 64 1018.6
20210422004600 40 23 2.0 3.0 0.00 0.00 0.00 65 1018.5
20210422004100 40 75 0.0 2.0 0.00 0.00 0.00 68 1018.3
20210422003559 40 100 1.0 2.0 0.00 0.00 0.00 68 1018.5
20210422003059 41 121 1.0 2.0 0.00 0.00 0.00 66 1018.5
20210422002559 41 76 0.0 2.0 0.00 0.00 0.00 67 1018.2
20210422002100 41 210 0.0 1.0 0.00 0.00 0.00 68 1018.1
20210422001559 41 178 1.0 2.0 0.00 0.00 0.00 66 1018.2
20210422001100 41 177 0.0 2.0 0.00 0.00 0.00 66 1018.1
20210422000559 41 37 1.0 2.0 0.00 0.00 0.00 64 1018.2
20210422000059 42 82 0.0 8.0 0.00 0.00 0.00 65 1018.2
20210421235600 42 2 1.0 3.0 0.00 0.00 0.00 66 1018.2
20210421235059 42 355 0.0 2.0 0.00 0.00 0.00 64 1017.9
20210421234600 42 333 2.0 5.0 0.00 0.00 0.00 63 1017.9
20210421234059 42 141 1.0 1.0 0.00 0.00 0.00 64 1017.9
20210421233600 42 21 1.0 3.0 0.00 0.00 0.00 63 1018.0
20210421233100 42 54 1.0 1.0 0.00 0.00 0.00 64 1018.0
20210421232559 42 83 0.0 1.0 0.00 0.00 0.00 61 1017.9
20210421232059 43 84 1.0 2.0 0.00 0.00 0.00 60 1017.9
20210421231600 43 111 1.0 7.0 0.00 0.00 0.00 62 1018.0
20210421231059 43 90 2.0 7.0 0.00 0.00 0.00 60 1017.8
20210421230600 44 47 0.0 2.0 0.00 0.00 0.00 61 1017.9
20210421230100 44 323 3.0 5.0 0.00 0.00 0.00 60 1017.9
20210421225600 44 356 2.0 3.0 0.00 0.00 0.00 59 1018.0
20210421225059 44 5 2.0 6.0 0.00 0.00 0.00 60 1018.0
20210421224559 44 25 1.0 5.0 0.00 0.00 0.00 58 1018.0
20210421224059 44 308 1.0 3.0 0.00 0.00 0.00 59 1018.0
20210421223600 45 310 1.0 3.0 0.00 0.00 0.00 58 1017.9